Location: The Saddle
(36.8333°N, 80.3417°W)
Time: 08:52:14
(UTC-05:00)

Vanguard 2 Rocket - Pass Details

Date: 19 December 2023
Orbit: 555 x 3309 km, 32.9° (Epoch: 02 March)

Event Time Altitude Azimuth Distance (km) Brightness Sun altitude
Rises 13:26:05 0° 268° (W) 4,809 10.8 27.7°
Reaches altitude 10° 13:28:43 10° 267° (W) 4,115 10.6 27.5°
Maximum altitude 13:40:44 76° 184° (S) 2,630 9.9 26.7°
Drops below altitude 10° 13:59:58 10° 104° (ESE) 6,213 11.1 25.2°
Sets 14:05:01 0° 103° (ESE) 7,291 11.4 24.7°
